This is the latest recevied weather packets stored in our database for station/object KD4WXI. If no packets are shown the sender has not sent any weather packets the latest 10 day(s).
| Time | Temp. | Humidity | Pressure | Rain* | Wind** | Luminosity | Snow |
|---|---|---|---|---|---|---|---|
| 1777556409 | 14.44° C | 93% | 1012.3 hPa | 0 mm | - | 92 W/m² | - |
| 1777556103 | 13.89° C | 93% | 1012.3 hPa | 0 mm | - | 68 W/m² | - |
| 1777555804 | 13.89° C | 93% | 1012.2 hPa | 0 mm | - | 32 W/m² | - |
| 1777555500 | 13.89° C | 93% | 1012.8 hPa | 0 mm | - | 28 W/m² | - |
| 1777555196 | 13.89° C | 94% | 1012.9 hPa | 0 mm | - | 25 W/m² | - |
| 1777554894 | 13.89° C | 95% | 1012.6 hPa | 0 mm | - | 25 W/m² | - |
| 1777554590 | 13.89° C | 95% | 1012.5 hPa | 0 mm | - | 21 W/m² | - |
| 1777554287 | 13.89° C | 95% | 1012.6 hPa | 0 mm | - | 30 W/m² | - |
| 1777553985 | 13.89° C | 96% | 1012.5 hPa | 0 mm | - | 53 W/m² | - |
| 1777553682 | 13.89° C | 96% | 1012.9 hPa | 0 mm | - | 42 W/m² | - |
| 1777553378 | 13.89° C | 96% | 1013 hPa | 0 mm | - | 31 W/m² | - |
| 1777553074 | 13.89° C | 97% | 1012.6 hPa | 0 mm | - | 28 W/m² | - |
| 1777552774 | 13.33° C | 97% | 1012.9 hPa | 0 mm | - | 28 W/m² | - |
| 1777552470 | 13.33° C | 97% | 1012.5 hPa | 0 mm | - | 23 W/m² | - |
| 1777552167 | 13.33° C | 97% | 1012.4 hPa | 0 mm | - | 23 W/m² | - |
| 1777551864 | 13.33° C | 97% | 1012.6 hPa | 0 mm | - | 27 W/m² | - |
| 1777551562 | 13.33° C | 97% | 1012.4 hPa | 0 mm | - | 31 W/m² | - |
| 1777551258 | 13.33° C | 96% | 1012.2 hPa | 0 mm | - | 28 W/m² | - |
| 1777550955 | 13.33° C | 95% | 1012.6 hPa | 0 mm | - | 26 W/m² | - |
| 1777550652 | 13.33° C | 96% | 1012.3 hPa | 0 mm | - | 25 W/m² | - |
| 1777550348 | 13.33° C | 97% | 1012.4 hPa | 0 mm | - | 23 W/m² | - |
| 1777550044 | 12.78° C | 96% | 1012.1 hPa | 0 mm | - | 22 W/m² | - |
| 1777549741 | 12.78° C | 97% | 1011.9 hPa | 0 mm | - | 18 W/m² | - |
| 1777549441 | 12.78° C | 98% | 1011.8 hPa | 0 mm | - | 14 W/m² | - |
| 1777549138 | 12.78° C | 98% | 1012 hPa | 0 mm | - | 14 W/m² | - |
* Rain latest hour (hover to see other rain measurements)
** Current wind speed in m/s (hover to see current wind gust speed)